Wind_Speed
58 62 66 69 71 74 75 76 76 77 79 79 80 82 83 83 83 83 82 81 81 81 80 80 79 78 78 77 76 75 75 74 74 74 74 74 74 74 74 75 76 77 77 78 78 78 79 79 79 79 80 80 81 82 83 84 84 85 86 88 89 90 91 92 93 94 94 95 96 96 97 97 98 98 99 99 100 101 101 102 102 102 103 103 103 104
52 56 59 62 66 69 72 73 74 75 75 75 77 79 79 80 81 82 82 82 83 82 81 80 79 79 78 77 77 76 76 75 75 75 75 76 75 76 76 77 78 78 78 78 78 79 79 79 80 80 80 81 81 82 83 83 84 85 86 87 87 88 89 90 92 93 94 95 96 97 98 98 99 100 100 101 102 102 103 104 104 105 105 106 106 107
48 51 54 57 61 64 67 70 71 72 72 73 74 76 76 77 78 80 80 82 83 82 82 81 81 80 79 78 77 77 76 76 76 76 77 77 77 77 78 78 78 78 78 79 79 79 80 80 79 80 80 81 81 82 83 84 84 85 86 86 87 87 88 89 90 91 92 93 94 95 96 98 99 100 101 102 103 104 105 106 106 107 108 108 109 109
43 46 50 53 55 57 59 63 66 68 70 71 72 73 73 73 74 76 77 79 80 81 81 81 82 82 80 79 78 77 77 77 77 77 77 78 77 78 78 78 78 78 78 79 79 79 79 79 78 79 80 81 82 82 83 84 84 85 85 86 86 87 88 88 89 90 91 92 93 94 95 96 97 98 99 101 102 104 105 106 107 108 109 110 111 111
38 41 44 47 49 50 53 56 59 62 65 68 69 69 69 70 71 73 74 76 77 78 79 80 80 80 79 78 77 77 77 77 77 77 76 76 76 76 77 77 77 77 77 77 77 77 77 77 78 79 80 81 81 81 82 82 83 83 84 84 85 86 86 87 88 88 89 90 91 92 93 94 95 96 97 98 100 101 102 104 106 107 109 110 111 112
33 36 39 41 43 46 49 51 53 57 60 63 64 65 66 67 69 70 72 73 74 75 76 76 76 75 74 75 75 76 76 76 75 75 75 75 75 75 75 75 75 75 75 74 74 74 75 76 77 78 78 79 79 79 79 79 80 80 81 81 82 83 83 84 84 85 86 86 87 88 89 90 91 92 94 95 96 98 99 101 102 104 106 107 109 110
30 32 34 36 38 41 45 48 50 53 55 57 59 61 63 64 65 66 68 69 71 72 72 72 71 71 71 72 72 72 72 73 73 73 74 73 73 74 73 73 73 72 72 73 73 74 74 75 75 76 76 76 76 76 76 76 77 77 78 78 79 79 79 79 80 80 80 81 81 82 83 84 85 86 87 89 90 92 94 96 98 99 101 103 105 107
28 29 30 32 34 37 40 44 46 48 50 51 52 54 57 59 60 62 64 65 67 67 67 66 66 67 67 68 68 69 69 69 70 71 71 71 70 70 70 70 71 71 72 73 73 74 74 74 74 74 74 74 74 74 73 73 73 73 74 74 74 74 74 74 74 75 75 75 75 76 76 77 78 79 80 82 83 85 87 89 91 93 96 98 100 102
23 25 26 27 29 33 36 39 42 43 45 46 47 48 50 52 54 56 58 59 60 60 60 60 61 61 61 62 63 64 64 65 66 66 66 65 66 67 67 68 69 69 70 71 71 71 71 71 71 72 72 71 71 70 70 70 70 70 70 70 71 71 72 72 72 73 73 73 73 73 73 74 74 75 76 77 78 80 82 84 85 87 90 92 94 96
21 23 25 26 26 28 30 33 36 38 40 41 42 43 44 45 45 47 49 51 52 52 53 54 55 55 55 57 58 58 59 59 60 59 60 61 62 63 63 64 64 65 66 67 67 67 67 67 68 68 68 67 67 67 67 67 68 68 69 69 70 70 71 71 71 72 72 72 72 72 72 72 73 73 74 75 76 77 78 80 82 83 85 87 88 90
23 23 23 24 25 25 25 25 27 31 34 36 37 37 38 38 38 39 41 43 45 47 49 51 52 52 53 55 55 55 55 56 56 56 57 58 59 59 59 60 61 62 63 63 63 63 63 63 64 64 64 64 65 65 65 66 66 67 67 67 67 68 68 68 69 69 69 69 70 70 71 71 72 72 73 73 74 75 76 78 79 80 82 83 85 86
28 27 26 26 25 25 25 25 26 28 30 30 31 32 32 32 33 34 36 38 40 42 44 46 47 48 50 51 52 53 53 54 55 55 56 56 57 57 58 58 58 59 59 59 59 60 60 60 60 60 60 61 61 61 61 61 61 61 61 61 62 62 62 63 63 64 64 65 66 66 67 67 68 69 70 71 71 72 73 74 76 77 78 79 81 82
29 30 29 29 28 28 28 27 26 26 26 26 26 28 29 30 30 31 32 33 34 36 37 39 40 42 45 47 48 49 50 51 51 52 52 53 53 53 53 54 54 54 54 54 55 55 54 54 54 54 54 54 54 53 53 53 54 54 54 54 54 55 55 56 56 57 57 58 59 60 60 61 62 62 63 64 65 66 67 68 70 71 72 73 75 76
29 30 30 28 28 29 29 29 28 26 25 25 23 23 24 25 26 27 28 29 30 32 32 34 35 36 37 38 39 39 40 41 41 42 43 44 45 45 46 46 46 47 47 47 46 46 46 46 45 45 45 45 44 44 44 44 45 45 45 45 46 46 47 47 48 48 49 49 50 51 52 53 54 55 56 57 58 59 60 62 63 64 65 67 68 70
28 29 31 29 28 27 26 28 29 27 25 24 22 21 21 21 22 23 24 24 24 24 24 24 24 25 26 26 27 27 28 29 30 31 32 33 34 35 35 36 36 37 36 36 36 35 35 34 34 33 33 33 33 33 33 34 34 34 35 35 36 36 37 39 39 40 41 42 43 44 45 46 47 48 49 51 52 53 55 57 58 59 61 62 64 65
26 25 27 28 28 28 27 26 27 27 25 23 22 20 18 17 16 15 13 12 11 12 13 13 14 15 16 17 17 18 19 19 20 21 22 22 23 23 23 24 24 23 23 23 22 22 21 21 21 21 21 22 22 23 24 24 25 26 27 28 28 29 30 32 33 34 35 36 37 38 39 41 42 43 45 46 48 50 52 53 55 56 58 60 61 63
30 26 28 27 25 24 23 22 22 22 21 19 17 15 12 10 10 8 6 5 4 4 5 6 6 7 8 8 9 9 10 10 10 11 11 11 11 11 11 11 10 10 10 10 10 10 11 12 12 13 14 14 15 16 17 18 19 20 21 22 23 24 26 27 28 30 32 33 35 36 37 38 40 41 43 45 47 50 52 54 55 57 59 61 62 64
39 34 35 34 30 29 28 27 26 25 23 21 20 18 17 16 16 14 12 11 10 9 9 9 9 9 8 8 8 8 8 8 8 8 7 6 5 4 2 1 0 1 2 3 4 5 6 7 7 8 9 10 11 12 14 15 16 17 18 20 21 22 24 26 28 30 32 34 36 38 39 40 42 43 45 47 49 52 54 56 57 59 61 63 65 67
44 39 38 38 37 36 35 33 31 29 28 26 25 24 23 22 21 20 20 19 18 18 18 17 17 16 16 15 14 14 13 12 12 11 10 10 9 9 9 8 8 8 8 8 8 9 9 9 10 10 11 12 13 14 15 16 17 18 19 21 22 24 25 27 29 31 33 35 37 39 41 43 44 46 47 49 51 53 55 57 59 61 63 65 67 69
46 42 39 40 40 39 38 36 34 33 32 31 30 29 28 27 27 26 25 24 24 23 23 23 22 21 21 20 20 20 19 19 19 19 19 18 18 18 17 17 16 16 15 15 14 14 14 14 14 14 14 14 14 15 15 16 17 18 20 21 23 24 26 27 29 31 33 35 37 39 41 43 45 46 48 50 52 54 56 59 61 63 64 66 68 71
48 45 42 42 42 41 40 39 37 36 35 34 34 33 33 32 32 32 31 31 31 31 31 30 30 30 29 29 29 29 28 28 28 27 27 26 25 24 23 22 21 20 19 18 17 16 15 15 15 14 14 14 15 15 16 17 18 19 20 22 23 25 27 29 30 32 34 36 38 40 42 44 46 48 50 52 54 56 58 60 63 64 66 68 70 72
54 51 49 48 48 47 45 45 44 43 43 42 42 41 41 41 42 42 41 41 41 40 40 40 39 38 37 36 35 34 34 33 31 30 29 28 26 25 24 23 22 20 19 18 17 16 16 15 15 15 15 16 16 17 18 20 21 22 23 24 25 27 29 31 33 35 37 39 41 43 44 47 49 51 53 55 57 59 61 63 65 67 69 70 72 74
62 60 59 56 56 55 54 54 53 53 52 51 51 50 50 49 49 49 48 46 45 44 44 43 42 41 39 38 37 35 34 33 31 30 29 27 26 25 23 22 21 20 19 18 18 17 16 16 16 17 17 18 19 20 21 22 23 24 25 26 28 29 31 33 35 37 39 41 43 45 46 48 50 52 55 57 59 61 63 65 68 70 72 73 75 77
64 64 63 61 60 59 59 58 57 57 56 55 54 53 52 51 50 50 48 47 46 45 44 43 42 40 38 37 36 34 33 31 30 29 27 26 25 24 23 22 21 20 19 18 18 17 17 17 17 18 19 19 20 21 22 23 25 26 27 28 30 31 33 35 37 39 40 42 44 46 48 50 52 54 57 59 61 63 66 68 70 72 74 76 78 79
63 63 63 61 60 59 58 58 57 56 55 54 54 52 51 51 50 49 48 47 46 45 43 42 41 39 37 36 34 33 31 30 29 28 27 25 24 23 22 21 20 20 19 19 18 18 18 18 19 19 20 21 22 23 24 25 27 28 29 30 32 34 36 37 39 41 43 45 46 48 50 52 54 57 59 61 63 66 68 70 72 74 76 77 79 81
61 61 61 60 59 58 57 57 56 55 54 53 53 51 50 50 49 48 46 45 45 43 42 41 39 38 36 35 34 32 31 30 29 28 27 26 25 24 23 22 21 21 20 20 20 19 20 20 21 21 23 24 25 27 28 29 31 32 33 34 35 37 39 41 43 44 46 48 50 52 54 56 58 60 63 65 67 69 70 72 74 75 77 78 80 81
58 58 57 57 56 55 54 54 53 53 52 51 50 49 48 47 46 45 44 43 42 41 40 40 39 38 36 35 34 33 32 30 29 28 27 26 25 25 24 23 23 22 22 21 21 21 22 22 24 25 26 28 30 31 33 34 35 36 37 38 39 40 42 44 46 48 50 52 54 56 58 60 62 64 66 68 70 71 73 75 76 77 79 80 81 83
53 53 53 52 52 51 51 51 50 50 49 48 47 46 45 44 43 43 42 41 41 40 39 38 37 36 35 33 32 31 30 29 28 27 26 26 25 24 24 24 23 23 23 23 23 23 24 25 26 27 29 31 33 34 36 37 38 39 40 42 43 45 46 48 50 52 54 56 57 59 61 63 66 68 69 71 73 75 76 78 79 81 82 83 84 86
49 48 48 48 48 48 48 47 47 47 46 45 45 44 43 43 42 41 41 40 39 38 37 35 34 33 32 31 30 29 28 27 27 26 25 25 24 24 23 23 23 23 23 24 25 26 27 28 29 30 32 34 35 37 39 40 42 43 44 46 47 49 51 52 54 56 57 59 61 63 65 67 69 71 73 75 77 78 80 81 83 84 85 87 88 89
45 44 44 44 44 44 44 44 43 43 42 42 42 41 41 40 39 39 38 37 36 34 33 32 31 30 29 28 27 27 26 25 24 24 23 23 22 22 22 22 22 23 24 25 27 28 29 31 32 33 34 36 37 39 41 43 45 47 48 49 51 53 54 56 57 59 61 63 65 66 69 71 73 75 77 79 81 82 84 85 86 88 89 91 92 93
41 41 40 40 40 39 39 39 38 38 38 38 37 37 36 36 35 34 33 32 32 31 30 29 29 28 27 26 25 24 23 22 22 21 21 21 21 21 22 23 24 25 26 27 28 30 31 32 33 35 36 38 40 42 44 46 47 49 51 52 54 56 57 59 60 62 64 66 68 70 72 74 77 79 81 83 84 86 87 89 90 92 93 94 96 97
38 38 37 37 36 35 34 34 33 33 33 32 32 31 31 31 30 29 28 28 27 27 26 26 26 25 25 24 24 23 23 22 22 22 22 22 22 23 24 25 25 26 27 29 30 32 33 35 36 38 39 41 42 43 45 47 49 51 52 54 56 58 60 62 63 65 67 69 72 74 76 78 81 83 85 87 88 90 91 93 94 95 96 98 99 101
34 34 34 34 33 32 31 30 29 28 27 27 26 26 25 25 25 25 24 24 23 23 23 22 22 22 22 23 23 24 24 24 23 23 23 23 23 24 26 27 28 29 30 32 34 36 37 38 39 40 41 43 44 45 47 49 51 53 55 57 59 61 63 65 67 69 71 73 76 78 80 82 85 87 89 91 92 93 94 96 97 98 99 100 102 104
31 30 30 30 29 29 28 27 26 25 24 22 22 21 21 21 21 21 21 21 21 21 21 21 20 20 20 20 21 23 24 26 26 25 25 25 25 26 28 30 32 33 35 36 37 38 39 41 41 42 44 45 47 48 50 53 55 57 59 61 63 65 67 69 71 73 75 78 80 82 84 86 88 91 92 94 95 96 97 99 99 100 102 103 104 106
27 27 27 26 26 26 25 24 24 23 22 20 19 19 18 17 17 18 19 19 19 19 19 19 19 19 19 20 21 22 24 26 27 27 27 28 29 30 31 33 35 36 37 38 38 40 41 42 44 45 46 48 50 51 54 56 58 61 63 65 67 69 71 73 75 76 79 81 83 85 87 89 92 94 95 97 98 99 100 101 102 103 104 105 106 107
22 23 23 23 23 23 23 22 22 21 20 20 19 19 18 17 16 16 17 17 17 17 18 18 18 19 20 21 22 23 24 25 26 27 27 28 29 30 32 33 35 36 37 38 40 42 43 45 46 47 49 51 52 54 57 59 61 64 66 68 70 72 74 75 77 79 82 84 86 88 90 92 94 96 98 99 100 102 102 103 104 105 106 107 108 109
18 18 18 18 19 19 20 20 20 21 20 20 19 19 18 18 17 17 17 18 18 17 17 18 19 20 21 22 23 24 26 26 26 26 27 27 28 29 31 33 34 36 38 40 42 44 46 48 49 50 51 53 55 57 60 63 65 67 69 72 74 75 77 78 80 82 84 87 89 91 92 95 97 99 101 102 103 104 105 105 106 107 107 108 108 110
16 15 14 14 15 15 16 17 18 20 21 20 20 19 18 18 18 18 18 18 19 18 18 19 20 21 22 23 25 27 29 30 30 30 30 30 31 32 34 36 37 39 41 43 45 47 49 51 52 53 54 56 58 61 63 66 68 70 72 75 77 79 80 82 83 85 87 89 91 93 95 97 99 102 103 104 105 106 107 107 107 108 108 109 109 110
17 16 15 14 13 13 13 14 15 16 19 20 19 19 18 17 16 16 16 17 18 19 19 20 21 22 23 25 27 29 31 34 36 36 35 35 36 36 38 40 42 44 45 47 49 51 52 54 55 57 58 60 62 64 66 69 71 73 75 77 80 81 83 85 86 88 90 92 94 96 98 100 102 104 106 106 107 108 108 108 108 109 109 110 110 110
19 19 18 16 16 16 14 14 14 14 16 18 18 18 17 16 15 15 15 16 18 20 21 22 22 23 25 27 30 32 34 36 38 39 40 40 41 42 42 44 45 47 48 50 52 54 56 57 59 60 62 63 65 67 69 71 73 75 77 80 82 84 85 87 89 90 93 95 96 98 100 102 105 107 108 108 109 109 110 109 109 110 110 110 110 109
20 21 20 19 18 19 18 15 14 14 16 17 18 18 18 19 19 18 18 20 21 23 24 25 26 27 29 32 34 36 37 38 39 41 42 43 45 46 47 47 48 49 50 53 56 58 60 61 62 63 65 66 67 69 71 74 75 77 80 82 84 86 87 89 91 93 95 97 99 100 103 105 107 109 110 110 111 111 111 111 111 111 111 110 109 107
20 20 21 21 20 20 21 20 18 17 17 17 18 18 20 22 22 22 22 22 23 25 27 29 30 32 35 37 38 40 41 42 43 44 46 47 47 48 49 50 51 53 55 57 59 61 63 64 66 67 68 69 70 72 74 76 78 80 82 84 86 88 89 91 93 95 97 99 101 103 105 108 110 112 112 112 112 113 113 113 112 112 111 109 107 105
20 19 19 20 19 20 21 23 23 22 20 19 19 19 20 23 25 26 26 26 27 29 31 33 34 36 38 40 41 42 43 46 47 49 50 51 51 52 53 54 55 56 59 61 63 65 66 68 69 71 71 72 73 76 78 79 81 83 85 87 89 90 92 93 96 98 100 102 104 106 108 111 113 114 114 114 114 114 114 113 112 111 110 108 106 104
22 20 19 19 20 20 20 23 24 24 23 22 21 20 20 22 24 26 27 28 29 30 32 34 36 37 39 41 42 43 44 46 48 50 52 54 55 55 57 58 58 60 62 64 66 68 70 72 73 74 75 75 77 79 81 82 84 86 88 90 91 93 94 97 99 101 103 104 106 109 111 113 115 115 115 115 115 115 114 113 112 110 109 107 106 103
22 23 22 22 22 22 22 24 26 25 23 22 22 22 22 23 24 25 27 28 29 30 32 33 35 36 37 38 40 42 45 47 49 52 54 55 57 58 59 61 62 63 65 67 70 72 74 75 76 77 78 79 80 82 84 86 87 89 91 93 94 96 98 100 102 104 106 108 109 111 113 115 116 116 116 116 116 115 114 112 110 108 107 106 104 102
19 23 24 26 28 28 27 28 30 30 27 24 24 25 25 26 26 28 31 33 34 35 36 38 39 40 40 41 42 44 47 50 52 55 57 58 60 61 62 64 65 66 68 71 73 75 77 78 79 80 81 82 83 85 88 89 91 93 94 96 98 99 101 103 105 107 109 110 111 113 115 116 116 117 117 117 117 116 114 112 109 107 105 104 102 100
17 18 20 23 27 29 29 30 32 33 32 30 28 29 29 30 32 34 36 38 40 41 42 43 44 45 46 47 47 49 52 55 56 58 61 62 63 64 66 68 70 71 72 74 76 77 78 79 81 82 83 84 86 88 91 92 94 96 97 99 101 102 104 106 108 109 110 112 113 114 116 117 117 117 117 117 116 114 112 110 108 105 103 102 100 98
20 18 19 20 22 26 28 29 32 35 35 34 33 34 35 35 37 39 40 42 44 46 47 48 49 50 51 52 54 55 58 60 61 63 65 67 68 69 71 72 73 74 75 76 77 78 80 81 83 84 85 87 89 91 93 94 96 98 100 102 104 105 107 109 110 111 112 113 114 116 117 117 117 117 116 115 114 112 110 107 106 104 102 100 98 96
22 21 22 22 23 25 27 29 32 36 38 37 36 38 39 39 41 42 42 44 46 47 49 51 52 53 54 56 57 59 61 64 65 66 68 69 70 71 72 73 74 75 76 78 79 80 81 82 84 86 87 89 91 92 94 96 98 100 102 104 106 107 109 110 111 112 113 114 116 117 117 117 117 116 114 113 111 109 107 105 104 102 100 99 97 95
25 24 23 23 25 26 27 30 33 37 41 40 38 39 40 41 43 44 44 45 47 49 50 52 53 54 55 55 57 58 60 63 65 66 68 70 70 71 72 73 75 76 78 79 81 82 83 84 86 87 89 91 92 94 96 98 100 102 104 106 107 109 110 111 112 114 115 116 117 118 117 116 115 114 112 110 107 105 103 102 101 100 99 97 95 93
29 28 26 25 26 26 27 30 34 37 41 42 41 41 42 42 43 44 45 47 49 50 51 52 54 55 56 56 57 58 60 63 65 67 70 71 72 72 73 74 75 77 79 81 83 84 86 87 88 90 91 92 94 96 98 100 102 104 105 107 109 110 111 112 114 115 116 118 118 117 116 115 113 111 109 107 104 102 100 99 97 97 97 95 92 90
Wind_Direction
222 223 224 225 225 226 226 227 227 228 228 229 229 230 230 230 230 230 231 233 234 236 237 238 238 239 239 240 241 242 243 244 245 246 247 248 249 250 251 252 253 254 254 255 255 256 256 257 257 258 258 258 258 258 259 259 259 259 259 259 259 259 260 260 261 261 261 262 262 262 263 263 263 264 264 264 264 265 265 265 265 266 266 266 266 266
220 221 222 223 223 224 224 225 225 226 227 227 228 229 230 230 230 231 231 232 233 234 235 237 238 239 240 240 241 242 242 243 244 245 247 248 249 250 251 252 252 253 254 255 255 256 257 257 257 258 258 259 259 259 260 260 260 260 260 261 261 261 261 262 262 262 263 263 263 263 264 264 264 265 265 265 265 265 265 265 266 266 266 266 266 267
215 217 218 219 220 221 222 222 223 224 225 225 226 227 228 229 230 231 232 232 233 234 235 236 237 238 239 240 241 242 243 244 245 246 247 248 249 250 251 251 252 252 253 254 255 256 256 257 258 259 260 260 260 260 261 261 261 262 262 262 262 263 263 263 263 264 264 264 264 264 264 265 265 265 266 266 266 266 266 267 267 267 267 267 267 267
210 213 215 217 218 219 220 221 222 222 223 224 224 225 226 227 228 230 231 232 234 235 235 236 237 237 238 239 240 241 243 244 245 246 248 249 250 250 251 252 252 253 253 254 255 256 257 258 260 260 261 261 261 262 262 262 263 263 264 264 265 265 265 265 265 265 266 266 266 266 266 266 266 266 266 267 267 267 268 268 268 268 268 268 268 268
206 208 212 214 215 216 217 218 220 221 222 223 224 225 225 225 227 228 229 231 232 234 235 236 237 238 239 240 241 242 243 244 245 246 247 248 249 250 251 252 253 253 254 255 256 258 259 259 260 260 261 262 262 263 263 264 265 265 266 267 267 267 267 267 268 268 268 268 268 268 268 268 268 268 268 268 268 268 268 268 268 268 269 269 268 269
202 204 207 209 211 212 213 215 216 218 220 221 223 224 225 225 226 227 228 229 231 232 233 235 237 238 240 241 241 242 243 244 245 246 247 247 248 250 251 252 253 254 256 257 258 259 259 259 260 260 261 262 263 264 265 266 267 268 268 269 270 270 271 271 271 271 271 271 270 270 270 270 270 269 269 269 269 269 269 269 269 269 269 269 269 269
194 198 201 203 205 207 209 211 212 214 217 219 220 221 223 225 226 227 228 229 230 232 233 234 235 237 238 239 241 242 243 244 245 246 247 248 249 250 252 253 255 256 257 258 258 259 259 260 261 262 263 264 266 267 268 269 270 271 271 272 272 273 273 274 274 274 274 274 273 273 272 272 271 271 271 270 269 269 269 269 268 268 268 269 269 269
185 189 193 196 197 200 203 207 209 211 213 216 218 219 221 223 225 227 228 230 231 232 233 234 236 237 238 240 241 242 243 244 245 246 248 249 251 252 254 255 256 257 258 259 260 261 262 263 265 266 267 268 270 271 271 272 272 273 273 274 274 275 275 275 275 275 275 275 275 274 274 274 273 273 272 272 271 270 270 269 269 269 268 268 269 269
174 178 181 185 189 193 197 201 204 207 210 213 214 216 219 221 223 225 228 230 232 234 235 236 237 238 239 241 242 244 245 246 247 248 250 252 253 254 255 256 257 258 259 260 262 263 265 266 267 268 269 270 271 271 272 273 273 274 274 274 275 275 276 276 276 276 276 276 276 276 275 275 274 273 273 272 271 271 271 270 270 269 269 269 269 270
156 164 166 170 177 185 190 195 198 201 205 209 211 213 216 219 221 224 226 229 232 234 236 238 239 239 240 242 243 244 246 247 249 251 252 253 254 255 256 257 258 259 260 261 262 263 265 266 267 268 269 270 271 272 273 273 274 274 275 276 276 277 277 277 277 277 277 277 277 276 276 276 275 275 274 273 273 273 273 273 272 272 272 271 271 271
138 145 151 156 162 169 175 182 189 194 198 203 206 209 213 215 218 221 224 226 228 230 232 234 236 237 238 240 242 243 245 246 248 249 250 251 252 254 255 256 256 258 259 260 262 263 264 265 267 268 270 271 272 273 274 274 275 275 276 276 276 276 276 276 276 276 276 276 276 276 276 276 276 276 276 276 276 276 276 276 275 275 275 274 274 273
129 133 138 144 150 154 158 164 174 183 190 195 199 202 206 210 213 217 220 223 226 228 230 232 234 236 238 239 240 242 243 244 246 247 249 250 252 253 254 255 257 259 261 263 264 265 267 268 270 271 272 273 274 274 275 275 275 275 276 276 276 276 276 276 276 276 276 276 277 277 277 278 278 278 279 279 279 279 279 278 278 278 278 277 277 277
124 130 134 139 145 147 151 156 163 171 176 181 189 194 196 201 205 210 215 219 223 227 229 231 233 235 237 238 240 242 243 245 247 249 250 252 254 256 258 260 261 263 264 266 268 269 271 272 273 273 274 274 274 274 274 275 275 275 275 276 276 277 277 277 278 278 279 279 280 281 281 281 282 282 282 282 282 282 282 282 281 281 281 281 280 280
116 123 127 132 139 143 146 150 151 156 161 164 172 182 186 192 198 203 208 213 218 222 225 228 231 234 238 241 244 247 250 252 254 256 257 259 260 262 264 265 267 268 269 271 272 273 274 274 274 274 274 274 274 274 275 275 276 276 277 278 279 280 281 282 283 283 284 284 284 285 285 285 285 286 286 286 286 285 285 285 285 284 284 284 283 283
112 118 120 123 128 130 136 143 143 145 149 150 155 166 174 181 192 200 206 211 217 222 227 231 236 240 245 248 252 254 257 260 261 262 263 264 266 267 269 270 271 272 272 273 273 273 272 272 273 274 274 275 276 277 278 279 281 282 283 284 285 286 287 287 288 288 289 289 289 289 289 290 290 290 290 290 290 290 289 289 289 288 288 287 287 287
99 106 112 119 124 127 135 141 141 141 145 146 149 157 165 173 183 192 200 211 221 227 231 235 240 243 246 249 251 252 253 255 257 258 260 262 265 266 267 267 267 267 267 267 268 269 271 273 275 278 280 281 284 286 287 289 290 292 293 293 294 295 295 296 296 296 296 296 295 295 295 295 295 296 295 295 295 294 293 293 293 292 292 291 291 290
79 83 91 98 108 117 123 125 123 124 127 127 126 126 126 126 125 127 138 156 176 191 203 213 219 223 227 228 230 231 232 234 235 237 240 243 245 247 248 250 253 257 261 267 274 281 286 289 292 295 298 300 302 304 305 307 307 308 309 309 309 309 308 307 306 305 304 304 303 302 302 301 301 300 299 299 298 298 297 297 296 296 295 295 294 293
81 81 85 88 92 95 97 96 96 98 100 100 101 101 101 101 102 105 111 115 119 124 129 133 137 140 146 149 153 156 159 161 161 163 164 166 168 169 170 175 213 329 333 335 335 334 335 336 338 338 338 337 336 335 334 332 331 328 325 323 320 318 316 315 314 312 311 311 309 308 307 306 305 304 302 301 300 299 298 297 297 296 296 295 294 294
86 85 87 91 92 92 93 93 94 95 97 99 101 101 102 103 103 106 108 110 112 114 115 115 115 116 117 118 119 118 117 116 114 111 106 101 96 90 85 80 75 71 66 61 55 49 42 35 29 22 15 8 2 357 351 346 341 336 332 328 325 323 321 319 317 314 312 311 309 308 306 305 304 303 302 300 299 298 297 296 295 294 294 293 292 292
87 86 88 90 91 92 93 94 95 97 99 100 101 102 102 102 102 103 103 104 104 104 103 103 102 101 101 101 100 99 98 97 95 94 92 91 89 88 86 84 81 78 74 69 63 56 50 42 35 28 20 13 6 359 352 346 341 336 333 329 325 322 319 316 314 311 309 308 306 305 304 304 303 302 301 299 298 297 296 295 294 293 293 292 291 291
84 85 85 86 88 89 90 92 93 94 95 95 96 96 96 97 97 96 96 97 97 97 97 96 95 95 96 95 95 95 94 94 93 92 91 89 88 86 84 80 77 73 68 64 58 53 46 39 32 25 17 9 1 355 348 343 339 335 331 328 324 321 319 316 314 312 310 309 308 306 306 305 304 303 302 300 299 299 298 297 296 296 295 294 293 292
84 85 84 85 86 87 89 90 90 91 91 92 92 93 93 94 95 95 95 96 96 96 96 95 95 95 95 94 93 93 92 91 89 88 86 84 82 80 77 74 71 67 63 59 54 48 42 35 27 20 12 5 359 354 349 344 340 337 333 330 327 324 321 319 317 315 313 312 311 310 309 308 307 307 306 305 304 303 302 301 300 299 298 297 296 295
84 85 85 86 87 88 89 90 91 91 92 93 93 94 94 95 95 95 95 95 95 95 94 94 93 92 91 90 89 88 87 85 84 82 81 79 77 75 73 70 67 63 59 54 49 43 37 31 24 18 11 6 1 355 351 347 342 338 335 332 329 326 323 321 320 318 317 315 314 313 313 312 311 310 309 308 307 305 304 303 302 300 299 298 298 297
83 85 86 86 87 88 89 90 91 92 92 93 93 93 93 93 93 93 92 91 91 89 88 88 87 86 85 85 84 83 82 81 81 79 78 77 75 73 70 67 64 60 55 50 45 39 33 27 21 15 9 4 359 354 350 345 342 338 335 333 330 328 326 324 322 321 319 318 317 316 315 314 313 311 310 309 308 307 306 305 304 303 301 300 299 298
81 83 84 85 85 86 87 88 88 89 89 90 89 89 89 88 88 87 87 86 85 84 84 83 83 83 82 82 81 81 81 80 79 77 76 74 72 69 66 62 58 54 49 44 38 33 27 21 16 10 5 360 355 351 347 344 341 338 335 333 332 330 328 327 325 323 322 320 319 317 316 316 315 314 313 313 312 311 310 309 308 306 305 303 302 300
78 79 80 81 82 83 84 84 85 86 86 86 86 86 86 85 85 85 85 85 84 84 83 82 82 81 81 80 79 78 77 76 74 73 70 68 64 61 57 54 49 45 41 36 31 26 21 16 11 6 2 358 354 350 347 344 342 339 337 335 333 331 330 328 327 325 324 323 322 321 321 320 320 319 319 318 317 316 315 313 311 309 307 306 304 302
76 76 77 78 80 81 82 83 83 84 84 84 84 85 85 85 85 85 84 84 83 82 81 80 79 78 77 76 74 73 72 70 68 66 63 60 57 54 50 46 42 37 32 28 23 19 16 11 8 4 360 356 353 349 346 343 341 338 336 334 333 331 330 329 328 327 326 325 325 325 324 324 323 322 321 320 319 318 316 315 313 311 309 308 306 304
73 74 75 76 78 80 81 82 83 83 83 83 83 83 84 84 83 83 83 82 81 79 77 76 75 74 73 71 70 68 67 65 63 60 58 55 51 47 43 39 34 30 25 21 16 13 10 6 3 360 356 353 350 347 344 341 338 336 335 334 333 332 331 330 329 328 328 327 326 326 325 325 324 323 322 321 320 318 317 316 314 313 311 310 308 306
72 72 73 75 77 79 81 82 82 82 82 82 82 81 81 81 81 81 80 79 77 75 73 72 71 71 70 69 68 66 64 61 58 55 51 47 43 40 35 31 27 22 18 13 9 6 3 0 358 355 353 350 347 344 341 339 337 336 335 334 333 332 331 330 329 329 327 327 326 326 325 325 324 323 322 321 320 319 318 316 315 314 313 311 310 308
72 72 73 75 77 79 80 81 80 80 80 80 80 80 80 80 79 79 78 76 74 72 71 70 69 69 68 66 65 62 59 56 51 48 44 40 36 32 28 24 19 15 11 6 3 360 358 356 354 352 349 347 344 342 339 337 336 335 334 334 333 332 331 330 329 328 327 327 326 326 326 325 325 324 323 322 321 320 318 317 316 315 314 313 311 310
72 72 73 75 77 79 80 80 79 79 79 78 78 78 78 78 77 77 75 73 70 68 67 65 65 65 64 63 59 56 51 47 43 39 35 32 29 25 20 16 12 7 4 1 358 356 354 352 351 349 347 345 343 340 338 336 334 333 333 332 331 330 329 329 328 328 327 327 327 327 326 326 325 325 324 323 322 321 320 318 317 316 315 314 313 312
70 71 71 72 74 76 77 78 78 77 77 77 76 76 76 75 74 73 72 69 67 65 62 60 57 55 53 51 47 43 40 36 33 30 28 24 20 16 12 8 6 2 359 356 354 351 350 349 348 347 345 343 340 338 335 333 332 331 330 330 330 329 328 328 328 328 328 328 328 328 327 327 326 326 325 324 323 321 320 319 318 317 316 315 314 314
69 69 69 69 69 70 71 72 73 73 73 73 73 73 72 72 70 68 67 66 64 62 60 57 53 48 43 38 34 31 30 29 26 23 20 18 13 9 5 2 359 357 354 352 350 348 346 345 344 343 341 339 338 336 333 331 330 329 329 329 328 328 328 328 328 329 329 329 329 328 328 328 327 326 325 324 323 321 320 319 318 317 316 316 315 314
69 68 68 67 67 67 66 66 66 66 65 65 64 64 64 64 63 61 60 59 57 55 53 51 48 45 41 35 29 24 21 19 18 15 12 9 6 3 0 358 356 353 351 348 346 344 342 340 339 338 338 337 336 334 333 331 330 329 329 329 329 329 329 329 330 330 330 329 329 329 328 328 327 327 325 324 323 321 320 319 318 317 317 317 316 315
68 67 67 66 65 65 64 63 62 61 61 59 57 56 54 53 51 50 49 47 45 43 41 39 36 34 31 28 25 21 16 9 6 6 4 2 0 359 357 355 353 351 348 345 342 339 337 336 336 336 336 335 335 334 333 332 331 331 330 330 329 329 329 330 330 330 329 329 329 328 328 327 327 326 325 324 322 321 319 319 318 318 318 317 316 316
65 64 64 63 62 61 59 58 56 55 53 53 52 50 48 47 45 43 40 37 34 31 29 26 23 20 18 16 13 12 12 7 359 356 356 355 353 352 350 348 347 346 344 342 339 337 335 334 334 335 335 335 335 334 333 332 332 331 331 330 329 329 329 329 329 329 329 329 328 328 327 327 326 326 325 323 322 320 319 319 319 318 318 318 317 316
58 58 58 57 57 56 55 53 51 48 46 45 44 43 42 40 38 35 32 28 23 19 16 13 11 9 6 4 360 357 357 359 356 351 348 347 345 343 342 341 340 340 341 340 338 336 334 333 334 334 335 335 334 333 332 331 331 331 330 329 328 328 328 328 329 329 328 328 327 327 326 326 326 325 324 323 321 320 320 319 319 319 319 318 318 317
49 47 46 46 46 46 46 46 44 42 40 38 37 36 32 29 25 21 17 15 12 9 6 3 1 359 356 353 351 346 343 344 346 345 342 340 340 338 337 336 336 337 339 339 338 336 334 333 334 334 334 334 333 333 331 330 330 330 329 328 328 328 328 328 328 328 328 327 327 326 326 326 325 325 324 322 321 320 320 320 320 320 320 319 319 318
40 39 36 33 31 30 30 33 35 34 33 32 31 29 24 19 12 7 1 358 358 358 357 355 351 349 348 345 342 340 337 335 336 338 338 337 336 336 335 334 333 334 335 336 336 334 333 333 333 333 334 334 333 332 330 329 329 328 328 327 327 327 327 327 327 327 327 327 326 326 326 325 325 324 323 322 321 321 321 321 321 321 321 320 319 319
28 31 32 31 30 27 21 17 19 21 21 21 21 18 15 11 5 359 352 348 347 349 350 349 345 342 341 339 336 335 335 333 333 334 335 336 335 335 334 333 332 332 333 334 334 332 331 331 331 332 333 332 332 330 329 328 328 327 326 326 326 326 326 326 327 327 326 326 326 325 325 325 325 324 323 322 322 322 322 322 322 322 321 321 320 319
18 18 21 23 23 27 28 22 14 10 7 5 4 2 0 360 358 356 352 348 345 343 342 343 341 338 337 337 335 334 333 333 333 332 333 334 334 334 333 333 332 332 332 333 332 331 330 329 330 330 331 331 331 329 328 328 327 326 325 325 325 325 325 326 326 326 326 326 325 325 325 325 325 324 323 323 323 323 323 323 323 323 322 322 321 320
19 14 13 15 11 11 18 22 19 13 7 0 355 350 348 349 351 352 350 347 343 339 337 337 338 336 335 335 335 333 331 331 331 331 331 333 334 333 332 332 332 332 333 333 332 331 330 329 329 329 330 330 330 329 328 327 326 325 325 325 325 325 325 325 326 326 326 326 325 325 325 325 325 324 324 324 324 324 324 324 324 323 323 322 322 322
17 16 12 14 10 1 1 7 10 10 8 3 358 351 344 343 346 346 345 343 340 336 334 334 334 335 335 335 334 332 329 328 328 328 328 329 331 332 331 331 332 333 333 332 331 330 330 329 329 329 329 330 330 329 328 327 326 325 325 325 325 325 325 326 326 326 326 326 326 326 326 326 325 325 324 324 325 325 325 324 324 324 323 323 323 324
1 9 8 8 9 1 352 354 0 4 4 1 358 356 350 345 343 343 341 338 335 333 331 330 331 332 334 334 332 329 326 325 324 324 324 325 328 329 330 330 331 332 331 330 330 330 330 330 330 329 329 329 329 328 327 326 325 325 325 325 325 325 326 326 326 326 326 326 326 326 326 326 325 325 325 325 325 325 325 325 325 325 324 324 324 325
344 351 355 354 357 357 348 345 351 357 358 354 351 352 352 348 344 342 339 336 335 333 331 329 329 330 331 331 329 325 323 323 323 322 323 324 326 327 328 328 328 328 328 329 329 330 330 330 329 328 328 328 328 327 326 325 325 325 325 325 325 326 327 327 326 326 326 326 326 326 326 326 326 325 325 326 326 325 325 325 326 325 325 325 325 325
342 345 347 344 344 346 343 339 341 347 350 351 349 348 347 345 342 339 337 336 336 334 333 332 332 332 331 331 328 325 324 324 325 324 324 325 326 326 326 326 326 327 327 328 328 329 328 328 327 327 326 326 326 325 325 325 325 325 325 326 326 327 327 327 326 326 326 326 326 326 326 326 326 326 326 326 326 326 326 326 326 326 325 325 325 326
352 347 343 337 334 335 335 333 333 337 342 348 351 348 345 343 342 340 339 338 337 335 333 333 332 332 331 330 329 327 325 326 326 325 324 325 325 326 326 326 327 327 327 327 326 326 326 326 325 325 324 324 323 323 324 324 324 324 325 326 326 326 326 326 326 326 326 326 326 326 326 326 326 326 326 326 326 326 326 326 326 326 326 326 326 326
354 349 343 338 334 334 332 329 327 328 333 340 345 344 342 341 341 340 339 338 336 334 332 331 331 330 330 329 328 328 326 326 326 325 325 325 325 326 326 326 326 325 325 324 324 324 324 324 323 323 323 322 322 322 323 323 323 324 325 326 326 326 325 325 325 325 326 326 326 326 326 326 327 327 326 326 326 327 327 327 326 326 326 326 326 327
345 344 343 342 340 338 333 328 324 323 326 332 337 337 337 337 336 336 336 335 332 331 329 328 328 328 328 328 328 327 326 325 325 324 323 323 323 324 323 323 323 322 322 322 322 322 322 322 322 322 322 322 322 322 322 322 323 324 325 325 325 325 325 325 325 325 326 326 326 326 326 327 327 327 326 327 327 327 327 327 327 327 327 326 327 327
332 333 334 335 336 335 332 327 323 322 323 327 330 330 330 331 330 330 330 329 327 326 325 324 324 324 324 324 324 324 323 322 321 320 319 319 319 320 320 320 320 320 320 320 320 320 320 321 321 321 321 321 321 321 321 322 323 324 324 324 324 324 324 324 325 325 326 326 326 326 326 327 326 326 327 327 327 328 328 328 327 327 327 327 328 328
321 321 323 323 325 328 326 322 320 319 320 322 324 324 324 324 324 324 324 323 322 321 320 319 318 317 317 317 318 319 318 318 318 318 317 317 317 318 317 317 318 318 319 319 319 319 320 321 321 321 320 320 320 321 322 323 324 324 323 323 323 323 324 324 325 325 326 326 326 326 326 326 326 327 327 328 328 328 329 328 328 327 327 328 328 329
Height
10458 10464 10469 10475 10483 10490 10498 10506 10514 10520 10526 10535 10543 10548 10553 10561 10567 10572 10577 10582 10586 10589 10595 10599 10604 10609 10612 10616 10619 10621 10625 10628 10630 10633 10635 10637 10640 10641 10641 10642 10643 10644 10646 10646 10647 10649 10651 10652 10653 10654 10654 10655 10655 10655 10655 10656 10656 10657 10658 10658 10658 10658 10659 10659 10659 10659 10659 10659 10659 10659 10658 10658 10657 10656 10655 10654 10653 10652 10650 10649 10648 10647 10646 10645 10644 10643
10453 10459 10465 10471 10478 10485 10492 10499 10506 10513 10522 10531 10536 10540 10548 10556 10561 10566 10571 10575 10578 10582 10588 10593 10597 10601 10604 10609 10612 10615 10618 10621 10624 10626 10628 10630 10632 10633 10634 10635 10636 10637 10639 10640 10641 10643 10643 10644 10645 10646 10647 10647 10648 10648 10647 10648 10648 10649 10649 10650 10650 10651 10651 10652 10651 10651 10651 10651 10650 10650 10649 10648 10647 10646 10645 10643 10642 10641 10640 10638 10637 10636 10635 10634 10632 10631
10449 10454 10460 10466 10472 10478 10486 10493 10500 10508 10517 10523 10528 10534 10542 10550 10555 10560 10565 10569 10571 10576 10581 10586 10589 10592 10596 10602 10605 10609 10612 10615 10617 10620 10621 10623 10625 10626 10626 10627 10629 10631 10632 10634 10635 10636 10636 10637 10639 10640 10640 10640 10640 10640 10640 10640 10641 10641 10642 10642 10643 10644 10644 10644 10643 10643 10642 10642 10641 10641 10640 10638 10637 10636 10634 10633 10631 10630 10629 10627 10626 10625 10623 10622 10620 10619
10446 10451 10456 10461 10468 10475 10483 10490 10497 10504 10510 10515 10521 10528 10536 10543 10549 10554 10559 10563 10566 10571 10576 10578 10581 10584 10590 10595 10599 10603 10606 10608 10611 10613 10615 10616 10618 10619 10619 10620 10623 10625 10626 10627 10628 10630 10632 10633 10634 10634 10633 10632 10632 10633 10633 10633 10633 10634 10635 10635 10636 10636 10636 10636 10635 10635 10634 10633 10632 10631 10630 10629 10628 10627 10625 10624 10622 10620 10618 10617 10615 10613 10611 10610 10608 10606
10445 10449 10454 10459 10466 10474 10481 10487 10495 10501 10506 10511 10517 10524 10531 10538 10543 10547 10552 10556 10560 10565 10568 10571 10575 10580 10586 10591 10595 10597 10599 10601 10604 10606 10608 10610 10611 10612 10613 10615 10616 10618 10619 10621 10624 10626 10628 10628 10627 10626 10625 10625 10625 10626 10626 10626 10627 10627 10628 10628 10628 10628 10628 10628 10627 10627 10626 10625 10624 10623 10622 10620 10619 10618 10616 10614 10612 10610 10608 10605 10603 10601 10599 10597 10595 10593
10444 10448 10453 10459 10465 10472 10478 10485 10491 10496 10501 10507 10514 10521 10527 10532 10536 10541 10546 10550 10554 10557 10562 10566 10571 10577 10582 10586 10589 10591 10593 10596 10598 10600 10602 10603 10605 10606 10607 10609 10611 10613 10616 10618 10620 10620 10620 10619 10619 10619 10618 10618 10619 10620 10620 10621 10622 10622 10622 10622 10621 10621 10620 10620 10619 10618 10617 10616 10615 10614 10612 10611 10609 10607 10605 10603 10601 10599 10596 10594 10591 10589 10586 10584 10582 10581
10443 10448 10453 10458 10464 10470 10476 10481 10487 10492 10497 10504 10510 10516 10522 10527 10533 10538 10542 10546 10549 10552 10558 10563 10568 10573 10576 10579 10582 10585 10588 10591 10593 10594 10596 10598 10600 10601 10603 10605 10608 10610 10611 10612 10612 10612 10612 10612 10612 10613 10613 10613 10614 10615 10616 10616 10616 10616 10616 10615 10614 10613 10612 10611 10610 10609 10608 10607 10605 10603 10602 10600 10598 10596 10594 10591 10589 10587 10584 10581 10579 10576 10574 10572 10570 10568
10442 10447 10453 10458 10464 10469 10474 10479 10484 10490 10496 10502 10508 10514 10520 10524 10530 10535 10539 10542 10545 10550 10555 10561 10565 10569 10572 10575 10578 10580 10583 10586 10587 10589 10591 10594 10596 10598 10600 10602 10604 10604 10604 10605 10605 10605 10606 10607 10607 10608 10608 10609 10610 10610 10610 10610 10610 10609 10608 10607 10606 10605 10604 10602 10601 10600 10598 10596 10595 10593 10591 10589 10586 10584 10582 10579 10577 10574 10571 10569 10567 10564 10562 10560 10558 10556
10444 10449 10454 10459 10465 10469 10473 10478 10483 10490 10495 10501 10507 10513 10518 10522 10527 10532 10537 10541 10545 10550 10556 10560 10563 10567 10570 10573 10574 10577 10579 10581 10583 10585 10589 10592 10594 10595 10596 10597 10598 10598 10599 10599 10600 10601 10602 10602 10602 10602 10603 10603 10603 10603 10603 10603 10602 10601 10600 10599 10598 10597 10595 10594 10592 10590 10588 10587 10585 10582 10580 10578 10576 10573 10571 10568 10566 10563 10560 10558 10556 10553 10551 10549 10547 10545
10447 10451 10456 10460 10466 10470 10474 10479 10483 10489 10495 10501 10506 10511 10516 10521 10526 10532 10536 10541 10545 10550 10555 10558 10560 10564 10567 10569 10570 10573 10575 10577 10580 10583 10586 10587 10588 10589 10591 10592 10593 10593 10593 10594 10595 10596 10597 10596 10596 10596 10596 10596 10596 10597 10596 10596 10595 10594 10593 10592 10590 10589 10587 10585 10583 10581 10579 10577 10575 10572 10570 10568 10565 10563 10561 10558 10556 10554 10552 10549 10546 10544 10541 10539 10537 10534
10449 10454 10458 10462 10467 10472 10476 10481 10486 10491 10496 10500 10506 10511 10516 10521 10526 10531 10535 10539 10542 10546 10549 10552 10555 10558 10561 10563 10566 10568 10571 10574 10576 10578 10579 10580 10582 10584 10585 10585 10586 10586 10587 10589 10590 10591 10591 10591 10591 10591 10591 10591 10591 10590 10590 10589 10587 10586 10585 10584 10582 10580 10578 10576 10574 10572 10570 10567 10565 10563 10561 10559 10556 10554 10552 10550 10548 10546 10544 10540 10537 10534 10532 10529 10527 10524
10452 10456 10460 10464 10469 10473 10478 10482 10487 10492 10496 10502 10507 10511 10516 10521 10525 10529 10532 10535 10538 10541 10544 10548 10551 10554 10557 10559 10562 10564 10567 10569 10570 10572 10573 10575 10576 10578 10579 10580 10581 10582 10584 10585 10585 10586 10587 10587 10587 10587 10587 10586 10585 10584 10583 10581 10580 10578 10577 10575 10573 10571 10569 10567 10565 10563 10561 10559 10557 10555 10553 10552 10549 10547 10545 10542 10540 10537 10535 10531 10528 10525 10522 10519 10516 10513
10456 10459 10462 10466 10470 10474 10478 10483 10487 10492 10497 10502 10507 10511 10514 10518 10522 10526 10529 10533 10536 10539 10543 10546 10549 10551 10553 10556 10558 10560 10562 10565 10567 10569 10570 10571 10573 10574 10576 10577 10578 10579 10580 10581 10581 10582 10582 10582 10582 10581 10580 10579 10578 10577 10575 10574 10572 10570 10569 10567 10566 10564 10562 10560 10558 10557 10555 10553 10551 10549 10547 10545 10543 10540 10537 10535 10532 10529 10526 10522 10519 10516 10513 10509 10505 10502
10461 10463 10466 10469 10473 10475 10479 10483 10488 10493 10498 10502 10506 10511 10514 10518 10522 10525 10529 10532 10535 10538 10541 10544 10546 10548 10551 10553 10556 10559 10561 10563 10565 10567 10568 10569 10571 10572 10573 10574 10575 10576 10577 10577 10577 10577 10577 10576 10575 10574 10573 10572 10571 10570 10568 10567 10566 10564 10563 10561 10560 10558 10556 10554 10553 10551 10549 10548 10545 10543 10541 10538 10536 10533 10530 10527 10524 10521 10517 10513 10510 10507 10504 10500 10496 10492
10468 10469 10470 10475 10478 10481 10484 10487 10490 10494 10499 10503 10508 10512 10516 10520 10523 10526 10529 10532 10535 10537 10540 10543 10546 10548 10551 10553 10556 10558 10560 10562 10563 10565 10566 10567 10568 10569 10570 10571 10572 10572 10573 10573 10572 10572 10571 10570 10570 10569 10568 10567 10566 10565 10564 10563 10561 10560 10559 10557 10556 10555 10552 10550 10548 10546 10544 10542 10540 10538 10535 10532 10530 10527 10523 10520 10517 10514 10510 10506 10503 10500 10496 10492 10488 10483
10475 10477 10477 10479 10482 10485 10489 10491 10494 10497 10502 10506 10509 10513 10517 10520 10524 10527 10531 10534 10537 10539 10542 10544 10546 10548 10550 10552 10554 10556 10558 10559 10561 10562 10563 10564 10566 10566 10567 10568 10568 10568 10568 10568 10568 10567 10567 10566 10566 10565 10564 10563 10562 10562 10560 10559 10558 10557 10555 10554 10552 10550 10548 10546 10544 10542 10539 10537 10535 10533 10530 10528 10525 10522 10519 10515 10511 10508 10504 10500 10497 10493 10489 10484 10481 10476
10481 10485 10484 10485 10488 10490 10494 10497 10499 10502 10506 10509 10513 10517 10521 10524 10527 10530 10533 10536 10538 10541 10542 10544 10546 10548 10549 10551 10553 10554 10556 10557 10558 10559 10561 10562 10563 10563 10564 10564 10565 10565 10565 10565 10565 10564 10564 10564 10563 10563 10562 10561 10560 10559 10558 10557 10555 10554 10552 10550 10549 10547 10545 10543 10541 10538 10536 10533 10531 10529 10526 10524 10521 10518 10515 10511 10507 10503 10499 10495 10491 10487 10482 10478 10473 10468
10486 10492 10491 10492 10495 10497 10500 10503 10505 10508 10511 10514 10518 10521 10524 10527 10529 10532 10535 10537 10539 10541 10542 10544 10546 10547 10549 10550 10551 10553 10554 10555 10557 10558 10559 10560 10560 10561 10562 10562 10562 10563 10563 10563 10563 10563 10563 10562 10562 10561 10560 10559 10558 10557 10556 10554 10553 10552 10550 10548 10547 10545 10543 10541 10538 10536 10533 10530 10528 10525 10522 10520 10517 10514 10510 10507 10502 10498 10494 10489 10485 10481 10476 10471 10466 10461
10491 10497 10499 10499 10501 10503 10505 10507 10510 10513 10516 10518 10521 10524 10527 10529 10532 10534 10536 10538 10540 10542 10543 10544 10546 10547 10549 10550 10551 10553 10554 10555 10556 10557 10558 10558 10559 10560 10561 10561 10562 10562 10563 10563 10563 10562 10562 10561 10561 10560 10559 10558 10557 10556 10554 10553 10552 10550 10549 10547 10545 10543 10541 10538 10536 10533 10530 10528 10525 10521 10518 10515 10513 10510 10506 10502 10497 10493 10488 10483 10479 10474 10470 10465 10459 10453
10497 10502 10506 10505 10506 10508 10510 10512 10514 10517 10520 10522 10525 10527 10529 10532 10534 10536 10538 10540 10542 10543 10544 10545 10547 10548 10549 10550 10552 10553 10554 10555 10556 10557 10558 10559 10560 10561 10561 10562 10562 10563 10563 10562 10562 10562 10561 10561 10560 10559 10558 10557 10556 10555 10554 10553 10551 10549 10547 10545 10543 10540 10538 10536 10533 10531 10527 10524 10522 10518 10515 10511 10508 10504 10501 10496 10491 10487 10482 10477 10472 10467 10462 10457 10451 10445
10504 10508 10512 10512 10512 10514 10516 10518 10520 10522 10525 10527 10529 10531 10533 10535 10537 10539 10540 10542 10543 10545 10546 10547 10548 10550 10551 10552 10553 10554 10555 10556 10557 10559 10560 10561 10562 10562 10563 10563 10563 10563 10563 10563 10563 10562 10562 10561 10560 10559 10558 10557 10556 10555 10553 10551 10549 10547 10545 10543 10540 10538 10536 10533 10530 10527 10524 10521 10517 10514 10511 10507 10503 10499 10495 10490 10485 10480 10475 10470 10465 10459 10454 10449 10442 10436
10513 10514 10517 10518 10518 10520 10522 10523 10525 10527 10529 10531 10533 10535 10537 10538 10540 10541 10543 10545 10546 10548 10549 10550 10551 10553 10554 10555 10556 10557 10558 10559 10560 10561 10562 10563 10563 10564 10564 10564 10564 10564 10564 10563 10563 10563 10562 10561 10560 10559 10558 10556 10555 10553 10551 10549 10547 10545 10543 10540 10538 10535 10532 10529 10526 10523 10520 10517 10513 10509 10505 10501 10497 10492 10488 10483 10478 10473 10468 10462 10457 10451 10445 10439 10433 10426
10522 10522 10524 10526 10526 10526 10528 10529 10531 10532 10534 10536 10538 10539 10541 10543 10544 10546 10548 10549 10551 10552 10553 10553 10555 10556 10558 10559 10560 10561 10561 10562 10563 10564 10564 10565 10565 10565 10565 10565 10565 10565 10564 10564 10563 10563 10562 10561 10559 10558 10556 10554 10553 10551 10549 10546 10544 10542 10540 10537 10535 10532 10529 10526 10522 10519 10515 10511 10507 10503 10499 10495 10491 10486 10481 10476 10470 10465 10459 10454 10448 10442 10436 10430 10423 10416
10532 10531 10532 10534 10535 10535 10536 10537 10538 10540 10541 10543 10544 10546 10547 10549 10550 10551 10553 10554 10555 10556 10557 10557 10559 10560 10561 10562 10563 10564 10565 10565 10566 10566 10566 10567 10567 10566 10566 10566 10566 10565 10565 10564 10563 10562 10561 10560 10558 10557 10555 10553 10551 10549 10547 10544 10542 10540 10537 10534 10531 10528 10525 10521 10518 10514 10510 10506 10502 10497 10493 10489 10484 10479 10474 10468 10463 10457 10451 10445 10439 10432 10426 10419 10413 10406
10543 10542 10541 10543 10544 10544 10545 10545 10546 10548 10549 10550 10551 10552 10553 10555 10556 10556 10558 10559 10559 10560 10561 10562 10563 10564 10565 10566 10567 10567 10567 10568 10568 10568 10568 10568 10568 10568 10567 10567 10567 10566 10565 10564 10563 10562 10560 10559 10557 10555 10553 10551 10549 10547 10545 10542 10539 10536 10534 10531 10528 10524 10520 10516 10513 10509 10505 10501 10496 10492 10487 10482 10477 10472 10466 10460 10454 10448 10442 10435 10429 10422 10415 10408 10401 10394
10551 10550 10550 10551 10551 10552 10553 10553 10554 10555 10555 10556 10557 10558 10559 10560 10561 10561 10562 10563 10564 10565 10566 10566 10567 10568 10569 10569 10569 10570 10570 10570 10570 10570 10570 10570 10569 10569 10568 10568 10567 10566 10565 10564 10562 10561 10559 10558 10556 10554 10552 10549 10547 10544 10541 10539 10536 10533 10529 10526 10523 10520 10516 10512 10507 10503 10499 10495 10490 10485 10480 10474 10469 10463 10457 10451 10445 10439 10432 10425 10418 10411 10404 10397 10390 10382
10558 10558 10558 10558 10558 10559 10560 10560 10560 10561 10562 10562 10563 10564 10564 10565 10566 10566 10567 10568 10568 10569 10570 10570 10571 10571 10572 10572 10572 10572 10572 10572 10572 10571 10571 10570 10570 10569 10568 10568 10566 10565 10564 10563 10561 10560 10558 10556 10554 10552 10549 10547 10544 10541 10538 10535 10532 10529 10525 10522 10519 10515 10511 10507 10502 10497 10492 10488 10483 10478 10472 10467 10461 10455 10449 10443 10436 10429 10422 10415 10408 10400 10393 10385 10378 10370
10566 10566 10565 10565 10566 10566 10566 10566 10567 10567 10568 10568 10569 10569 10569 10570 10570 10571 10571 10572 10572 10573 10573 10574 10574 10574 10574 10574 10574 10574 10574 10573 10573 10573 10572 10571 10570 10569 10568 10567 10566 10565 10563 10562 10560 10558 10556 10555 10552 10550 10547 10544 10541 10538 10535 10531 10528 10525 10521 10517 10513 10509 10505 10500 10495 10491 10486 10481 10476 10471 10465 10459 10453 10447 10440 10434 10427 10419 10412 10405 10397 10389 10381 10373 10365 10357
10572 10573 10572 10572 10572 10572 10572 10573 10573 10573 10573 10573 10574 10574 10574 10574 10574 10575 10575 10576 10576 10576 10576 10577 10576 10577 10577 10576 10576 10576 10575 10575 10574 10573 10572 10571 10570 10569 10568 10567 10565 10564 10562 10560 10559 10557 10554 10552 10550 10547 10545 10541 10538 10535 10531 10527 10523 10519 10516 10512 10507 10503 10498 10494 10489 10484 10479 10474 10469 10463 10457 10451 10444 10437 10430 10423 10416 10409 10401 10394 10386 10377 10369 10361 10352 10343
10579 10579 10578 10578 10578 10578 10578 10578 10578 10578 10578 10578 10578 10578 10578 10578 10578 10579 10579 10579 10579 10579 10579 10579 10579 10578 10578 10578 10577 10577 10576 10576 10575 10574 10573 10572 10571 10569 10568 10566 10565 10563 10561 10559 10557 10554 10552 10550 10547 10544 10542 10538 10535 10531 10526 10522 10517 10514 10510 10506 10501 10497 10492 10487 10482 10477 10472 10466 10461 10455 10449 10442 10435 10428 10420 10413 10406 10398 10390 10382 10374 10366 10357 10348 10339 10329
10584 10584 10584 10584 10583 10584 10583 10583 10583 10583 10583 10583 10583 10582 10582 10582 10582 10582 10582 10582 10581 10581 10581 10581 10580 10580 10580 10580 10579 10578 10577 10577 10576 10574 10573 10572 10570 10569 10567 10565 10563 10561 10559 10557 10554 10552 10550 10547 10544 10541 10538 10534 10530 10526 10522 10517 10513 10509 10505 10501 10496 10491 10486 10480 10475 10470 10464 10458 10453 10447 10440 10433 10426 10418 10410 10403 10395 10387 10379 10371 10362 10353 10344 10335 10324 10314
10589 10589 10589 10588 10588 10588 10588 10587 10587 10587 10587 10586 10586 10586 10585 10585 10585 10585 10584 10584 10584 10583 10583 10582 10582 10581 10581 10580 10580 10579 10578 10576 10575 10574 10572 10570 10569 10567 10565 10563 10561 10559 10557 10554 10552 10549 10546 10543 10540 10537 10534 10530 10526 10522 10518 10513 10509 10504 10500 10496 10490 10485 10479 10474 10468 10463 10457 10450 10444 10438 10431 10424 10416 10408 10400 10392 10384 10376 10367 10358 10350 10340 10331 10321 10310 10300
10594 10593 10593 10593 10592 10592 10592 10591 10591 10591 10590 10590 10589 10589 10588 10588 10587 10587 10587 10586 10586 10585 10585 10584 10583 10582 10581 10580 10579 10578 10577 10576 10574 10573 10571 10569 10568 10566 10564 10561 10559 10557 10554 10551 10548 10545 10542 10539 10536 10534 10530 10526 10523 10518 10513 10509 10504 10499 10495 10490 10484 10479 10473 10467 10460 10454 10448 10442 10435 10429 10421 10414 10406 10398 10389 10381 10373 10364 10355 10346 10337 10328 10318 10308 10297 10286
10597 10597 10596 10596 10596 10595 10595 10595 10594 10594 10593 10593 10592 10592 10591 10590 10590 10589 10589 10588 10587 10587 10586 10585 10584 10583 10582 10581 10579 10577 10576 10574 10573 10572 10570 10568 10566 10564 10562 10560 10557 10554 10551 10548 10545 10542 10539 10536 10533 10530 10527 10523 10518 10513 10508 10503 10498 10493 10488 10483 10477 10471 10464 10458 10452 10446 10439 10432 10426 10419 10411 10404 10395 10387 10379 10370 10362 10353 10344 10334 10325 10315 10305 10295 10284 10273
10600 10600 10599 10599 10598 10598 10598 10597 10597 10596 10595 10595 10594 10594 10593 10592 10591 10590 10590 10589 10588 10588 10586 10585 10585 10584 10583 10582 10580 10579 10576 10574 10572 10570 10569 10566 10564 10562 10560 10557 10555 10552 10549 10546 10543 10540 10537 10533 10530 10527 10523 10519 10514 10509 10503 10497 10491 10486 10481 10475 10469 10463 10456 10450 10443 10437 10430 10423 10416 10409 10401 10393 10385 10377 10368 10359 10350 10341 10331 10322 10312 10303 10292 10282 10271 10259
10603 10602 10601 10601 10600 10600 10599 10599 10598 10597 10597 10596 10596 10595 10594 10594 10593 10592 10591 10590 10589 10588 10586 10585 10584 10583 10582 10581 10579 10578 10577 10575 10573 10570 10569 10566 10564 10561 10559 10556 10554 10551 10548 10545 10541 10537 10534 10530 10527 10523 10519 10514 10509 10503 10497 10491 10485 10480 10474 10468 10461 10455 10448 10442 10435 10428 10421 10414 10407 10399 10391 10383 10375 10366 10357 10348 10339 10329 10319 10309 10299 10289 10279 10269 10258 10245
10605 10604 10603 10603 10602 10601 10601 10600 10599 10599 10598 10597 10597 10596 10595 10594 10593 10592 10591 10590 10589 10587 10586 10584 10583 10582 10580 10579 10577 10576 10575 10574 10573 10571 10568 10566 10564 10561 10558 10555 10552 10549 10545 10541 10537 10533 10529 10525 10522 10518 10514 10509 10503 10497 10491 10484 10479 10473 10467 10460 10454 10447 10440 10433 10427 10420 10412 10405 10397 10389 10381 10373 10364 10356 10346 10337 10327 10317 10306 10297 10287 10277 10266 10255 10244 10231
10607 10606 10605 10604 10603 10602 10602 10601 10600 10599 10599 10598 10597 10596 10595 10594 10593 10592 10590 10589 10588 10586 10585 10583 10582 10580 10579 10577 10575 10573 10570 10569 10569 10567 10565 10563 10560 10558 10554 10551 10548 10544 10540 10537 10532 10528 10523 10519 10516 10512 10508 10503 10497 10490 10484 10477 10472 10466 10459 10453 10446 10439 10432 10425 10418 10411 10403 10395 10387 10379 10370 10362 10353 10344 10335 10325 10314 10304 10294 10284 10274 10263 10252 10240 10229 10218
10608 10607 10606 10605 10604 10603 10603 10602 10601 10600 10599 10598 10597 10596 10595 10594 10592 10591 10590 10588 10587 10586 10584 10582 10581 10579 10577 10576 10574 10572 10569 10565 10563 10561 10560 10557 10554 10552 10549 10545 10541 10537 10534 10531 10527 10522 10517 10513 10509 10505 10501 10496 10490 10483 10477 10470 10464 10459 10452 10445 10438 10431 10424 10416 10409 10401 10393 10385 10377 10368 10359 10351 10341 10332 10323 10312 10301 10290 10280 10271 10260 10249 10237 10226 10214 10202
10609 10608 10607 10607 10605 10604 10603 10602 10601 10600 10599 10598 10597 10596 10595 10594 10592 10591 10590 10588 10587 10585 10584 10582 10581 10579 10577 10575 10572 10570 10567 10564 10559 10556 10554 10551 10548 10546 10543 10540 10536 10532 10529 10525 10521 10516 10511 10506 10502 10498 10494 10489 10483 10476 10470 10463 10457 10451 10444 10437 10430 10422 10415 10408 10400 10392 10384 10375 10366 10357 10348 10339 10330 10320 10309 10299 10289 10277 10266 10256 10246 10234 10223 10211 10199 10186
10610 10609 10608 10607 10606 10605 10604 10603 10601 10600 10598 10597 10596 10595 10594 10593 10591 10590 10589 10587 10585 10584 10582 10581 10579 10576 10574 10571 10568 10565 10563 10560 10557 10553 10549 10547 10543 10539 10537 10534 10530 10527 10523 10519 10515 10510 10504 10499 10495 10491 10487 10482 10476 10469 10463 10456 10449 10443 10436 10429 10421 10414 10406 10399 10391 10382 10374 10365 10355 10346 10337 10327 10317 10307 10296 10285 10275 10264 10252 10241 10230 10219 10208 10197 10185 10172
10610 10609 10608 10606 10605 10604 10603 10603 10601 10600 10598 10597 10595 10594 10592 10590 10589 10588 10587 10585 10583 10581 10579 10577 10575 10572 10569 10566 10563 10560 10556 10553 10551 10547 10543 10541 10538 10535 10531 10527 10524 10520 10516 10511 10507 10503 10498 10492 10487 10483 10479 10475 10469 10462 10455 10448 10441 10434 10427 10420 10412 10404 10397 10389 10381 10372 10363 10354 10345 10335 10325 10315 10304 10294 10282 10271 10261 10250 10238 10227 10215 10204 10192 10181 10170 10158
10611 10610 10608 10607 10605 10603 10602 10601 10600 10599 10597 10596 10594 10593 10591 10589 10587 10585 10584 10583 10581 10579 10576 10574 10571 10569 10565 10562 10558 10555 10551 10546 10543 10540 10536 10533 10531 10528 10524 10520 10517 10512 10508 10504 10499 10495 10490 10484 10479 10474 10470 10466 10460 10454 10447 10441 10433 10425 10418 10411 10403 10395 10387 10379 10371 10362 10353 10344 10334 10324 10314 10303 10292 10280 10269 10258 10248 10236 10224 10214 10202 10189 10177 10165 10154 10144
10609 10609 10608 10606 10605 10603 10601 10600 10599 10598 10596 10595 10594 10592 10590 10588 10586 10584 10582 10581 10579 10577 10574 10571 10569 10566 10563 10559 10555 10551 10547 10543 10539 10535 10531 10527 10524 10522 10517 10513 10510 10506 10502 10498 10493 10488 10482 10477 10471 10465 10461 10457 10452 10446 10439 10433 10425 10416 10409 10402 10393 10385 10377 10368 10360 10351 10342 10333 10323 10313 10302 10291 10279 10268 10256 10245 10234 10223 10211 10200 10189 10176 10163 10150 10140 10131
10607 10606 10605 10604 10603 10602 10600 10598 10597 10596 10596 10594 10593 10591 10590 10588 10586 10584 10582 10580 10579 10576 10574 10571 10568 10565 10562 10559 10554 10549 10544 10541 10537 10531 10527 10523 10519 10516 10512 10507 10504 10501 10497 10491 10486 10480 10475 10470 10464 10458 10452 10448 10443 10437 10431 10424 10416 10407 10400 10392 10384 10375 10367 10358 10349 10340 10331 10322 10312 10302 10291 10280 10268 10255 10244 10232 10220 10209 10197 10187 10176 10164 10151 10139 10128 10119
10607 10604 10602 10600 10599 10599 10598 10596 10594 10593 10593 10592 10591 10589 10588 10586 10585 10583 10580 10578 10575 10573 10570 10567 10564 10561 10558 10555 10552 10546 10540 10537 10533 10527 10522 10519 10515 10512 10508 10503 10498 10494 10490 10483 10478 10473 10468 10463 10458 10452 10446 10440 10434 10428 10421 10414 10406 10399 10390 10382 10374 10365 10356 10348 10339 10330 10321 10311 10301 10291 10280 10269 10257 10245 10231 10219 10206 10194 10182 10172 10163 10153 10141 10128 10118 10110
10607 10605 10603 10600 10598 10596 10595 10593 10590 10588 10588 10589 10588 10587 10585 10583 10581 10579 10576 10573 10570 10567 10565 10562 10559 10556 10552 10549 10546 10541 10536 10532 10528 10523 10517 10513 10510 10506 10501 10496 10490 10485 10481 10476 10471 10467 10462 10457 10451 10445 10439 10432 10425 10418 10411 10403 10396 10389 10381 10372 10364 10355 10346 10338 10329 10320 10311 10301 10291 10280 10269 10257 10246 10234 10221 10208 10195 10183 10171 10159 10149 10140 10130 10119 10109 10102
10606 10605 10604 10601 10599 10596 10593 10591 10588 10585 10584 10585 10584 10582 10580 10578 10576 10574 10571 10568 10565 10561 10558 10555 10552 10549 10546 10542 10539 10535 10529 10524 10521 10516 10510 10505 10501 10497 10492 10487 10483 10478 10475 10470 10466 10461 10456 10450 10444 10438 10431 10424 10417 10409 10401 10394 10386 10378 10370 10362 10354 10345 10336 10328 10319 10310 10301 10291 10280 10269 10258 10246 10234 10223 10210 10198 10185 10172 10161 10150 10139 10129 10119 10109 10100 10092
10604 10603 10602 10600 10598 10596 10593 10589 10585 10581 10580 10581 10580 10578 10575 10573 10571 10568 10566 10564 10560 10557 10553 10549 10546 10543 10539 10535 10532 10527 10522 10517 10513 10509 10504 10498 10495 10492 10487 10482 10478 10474 10469 10464 10459 10455 10450 10444 10437 10430 10423 10415 10408 10400 10392 10384 10376 10368 10360 10352 10344 10335 10326 10317 10308 10299 10290 10279 10268 10257 10246 10234 10223 10211 10200 10189 10176 10163 10151 10139 10129 10118 10108 10099 10091 10081
10600 10600 10599 10598 10596 10594 10591 10587 10583 10578 10575 10575 10576 10575 10572 10569 10566 10563 10561 10559 10555 10552 10549 10545 10540 10537 10534 10531 10528 10524 10519 10514 10509 10505 10499 10495 10491 10488 10483 10477 10472 10467 10462 10458 10452 10447 10442 10436 10430 10422 10414 10407 10399 10391 10383 10374 10366 10358 10350 10342 10334 10326 10317 10307 10298 10289 10278 10267 10257 10246 10235 10224 10213 10202 10191 10180 10169 10158 10145 10132 10119 10108 10099 10090 10082 10071
10596 10596 10595 10594 10593 10591 10588 10585 10581 10577 10573 10571 10571 10570 10568 10566 10563 10559 10557 10554 10551 10547 10545 10541 10537 10533 10529 10526 10524 10521 10516 10511 10505 10500 10494 10489 10485 10481 10476 10471 10466 10460 10455 10450 10445 10439 10433 10427 10421 10414 10406 10398 10390 10381 10373 10365 10357 10349 10341 10333 10325 10316 10307 10298 10288 10278 10267 10257 10246 10236 10225 10215 10204 10193 10182 10171 10161 10151 10140 10127 10114 10102 10091 10084 10076 10064